[[{"header":{"parameterUnit":"m.s-1","parameterCategory":1,"la1":30.2991,"la2":30.254,"lo1":-89.0895,"lo2":-89.0444,"dy":0.0017,"dx":0.0017,"nx":28,"ny":28,"refTime":"2024-08-04T09:00:00:Z","depth":0,"parameterNumber":2,"parameterNumberName":"U-component_of_WINDS"},"data":[0,0,0,0,0,0,0,0,0,0,0,0,0,0,0,0,0,0,0,0,0,0,0,0,0,0,0,0,0,0,0,0,0,0,0,0,0,0,0,0,0,0,0,0,0,0,0,0,0,0,0,0,0,0,0,0,0,0,-1.5925,-1.5926,0,-1.601,-1.6011,-1.6012,-1.6003,-1.6002,-1.6,-1.5999,-1.6087,-1.6091,-1.6094,0,0,0,0,0,0,0,0,0,0,0,0,0,-1.5755,-1.5758,-1.5925,-1.5926,-1.5927,-1.601,-1.6011,-1.6012,-1.6003,-1.6002,-1.6,-1.5999,-1.6086,-1.609,-1.6095,0,0,0,0,0,0,0,0,0,0,0,0,0,-1.5833,-1.5759,-1.5925,-1.5933,-1.5934,-1.601,-1.6011,-1.6012,-1.6004,-1.6002,-1.6,-1.5998,-1.6085,-1.609,-1.6095,-1.6168,0,0,-1.6112,-1.6114,0,0,0,0,0,0,0,0,-1.5829,-1.584,-1.593,-1.5932,-1.5934,-1.5994,-1.5983,-1.6065,-1.6004,-1.5977,-1.5999,-1.5997,-1.6058,-1.6065,-1.6086,-1.6173,-1.6176,-1.6112,-1.6115,-1.6118,-1.6119,0,0,0,0,0,0,0,-1.5824,-1.5836,-1.5959,-1.5932,-1.5934,-1.5932,-1.5941,-1.5999,-1.6028,-1.598,-1.5979,-1.5989,-1.6058,-1.608,-1.6088,-1.6178,-1.6112,-1.6117,-1.612,-1.6122,-1.6328,-1.633,0,0,0,0,0,0,-1.5816,-1.5832,-1.5956,-1.5961,-1.5876,-1.5937,-1.5947,-1.5977,-1.6027,-1.6033,-1.5991,-1.5988,-1.6072,-1.6081,-1.6091,-1.6179,-1.6118,-1.6123,-1.6126,-1.6325,-1.6328,-1.6331,0,0,0,0,0,0,-1.5813,-1.5827,-1.5952,-1.5896,-1.5912,-1.5942,-1.5976,-1.5979,-1.6001,-1.6036,-1.6041,-1.6008,-1.6071,-1.6083,-1.6149,-1.6182,-1.6125,-1.613,-1.6323,-1.6326,-1.6329,-1.6357,0,0,0,0,0,0,-1.5808,-1.5826,-1.5854,-1.5897,-1.5915,-1.6009,-1.5978,-1.5983,-1.6011,-1.6008,-1.6053,-1.6059,-1.607,-1.6141,-1.6154,-1.6188,-1.6134,-1.632,-1.6324,-1.6328,-1.6353,-1.636,-1.6367,0,0,0,0,0,-1.5802,-1.5859,-1.5856,-1.5871,-1.5951,-1.6011,-1.6022,-1.6034,-1.6013,-1.6042,-1.6064,-1.6057,-1.6176,-1.6148,-1.6163,-1.6199,-1.6318,-1.6323,-1.6328,-1.635,-1.6359,-1.6367,0,0,0,0,0,0,-1.582,-1.5865,-1.5862,-1.5935,-1.5969,-1.601,-1.6046,-1.6043,-1.6084,-1.6081,-1.6094,-1.6104,-1.617,-1.6191,-1.6159,-1.6272,-1.6244,-1.6253,-1.6256,-1.6265,-1.6272,-1.6265,-1.6139,0,0,0,0,0,-1.5833,-1.5878,-1.5915,-1.5975,-1.5993,-1.6016,-1.6043,-1.6049,-1.6086,-1.61,-1.6127,-1.6163,-1.6208,-1.6238,-1.6281,-1.6356,-1.6365,-1.6388,-1.6395,-1.6401,-1.6408,-1.6447,-1.6458,-1.6347,-1.6347,-1.6347,0,0,-1.5859,-1.5889,-1.5917,-1.598,-1.6007,-1.6053,-1.6029,-1.6079,-1.6113,-1.6108,-1.6171,-1.6192,-1.6233,-1.6303,-1.6335,-1.6322,-1.644,-1.6407,-1.6411,-1.6415,-1.6454,-1.6464,-1.6473,-1.635,-1.635,-1.6349,0,0,-1.5931,-1.5958,-1.6011,-1.6039,-1.6081,-1.6096,-1.6109,-1.6149,-1.6163,-1.6226,-1.6223,-1.6264,-1.6342,-1.6371,-1.6396,-1.6477,-1.6472,-1.6491,-1.6528,-1.6566,-1.6575,-1.6583,-1.6611,-1.6621,-1.6498,-1.6498,-1.6498,0,-1.5959,-1.6028,-1.6039,-1.609,-1.6117,-1.6114,-1.6167,-1.6194,-1.6248,-1.6266,-1.6251,-1.6348,-1.6376,-1.6452,-1.6471,-1.6492,-1.6506,-1.6486,-1.6573,-1.6581,-1.6588,-1.6615,-1.6626,-1.65,-1.65,-1.6499,-1.6499,0,-1.606,-1.6108,-1.6146,-1.6197,-1.6228,-1.628,-1.6299,-1.633,-1.6333,-1.635,-1.6414,-1.6446,-1.6496,-1.6515,-1.6519,-1.6591,-1.6582,-1.657,-1.6542,-1.66,-1.6626,-1.6636,-1.6503,-1.6502,-1.6501,-1.6501,0,0,-1.6146,-1.6202,-1.6216,-1.6238,-1.6283,-1.6321,-1.6372,-1.642,-1.6445,-1.6483,-1.6526,-1.6591,-1.658,-1.6608,-1.6615,-1.6649,-1.671,-1.6633,-1.6634,-1.6645,-1.6791,-1.6799,-1.6811,-1.6707,-1.6709,-1.6711,-1.6787,0,-1.6222,-1.6312,-1.6323,-1.6403,-1.6447,-1.6444,-1.6489,-1.6521,-1.6538,-1.6578,-1.6596,-1.6642,-1.6624,-1.6641,-1.6674,-1.6696,-1.6739,-1.669,-1.6747,-1.6749,-1.6736,-1.6825,-1.6834,-1.6904,-1.6797,-1.6799,-1.68,0,-1.6322,-1.6361,-1.6445,-1.6483,-1.6502,-1.6542,-1.6586,-1.6624,-1.666,-1.667,-1.6701,-1.6704,-1.6756,-1.6727,-1.6799,-1.6765,-1.6789,-1.6803,-1.6806,-1.6811,-1.6778,-1.6831,-1.6927,-1.6937,-1.6816,-1.6815,-1.6814,0,-1.6375,-1.6449,-1.6509,-1.6528,-1.6574,-1.6602,-1.6622,-1.6657,-1.6684,-1.6723,-1.6741,-1.6786,-1.681,-1.6844,-1.6859,-1.6836,-1.693,-1.6902,-1.6939,-1.6938,-1.6958,-1.6957,-1.7058,-1.6975,-1.6975,-1.6975,-1.6974,0,-1.6458,-1.651,-1.6533,-1.657,-1.6627,-1.6639,-1.6696,-1.6715,-1.6745,-1.6785,-1.6786,-1.6824,-1.684,-1.6881,-1.6892,-1.695,-1.6961,-1.697,-1.6972,-1.697,-1.6968,-1.6985,-1.698,-1.6977,-1.6977,-1.6976,-1.6976,0,-1.6527,-1.6545,-1.661,-1.6647,-1.6658,-1.6699,-1.6731,-1.6766,-1.6782,-1.6833,-1.6846,-1.6871,-1.6918,-1.6936,-1.6994,-1.7001,-1.7067,-1.7066,-1.7055,-1.7055,-1.7091,-1.7087,-1.7206,-1.7222,-1.7129,-1.713,-1.7131,0,-1.6579,-1.6618,-1.666,-1.6686,-1.6707,-1.6751,-1.6778,-1.6792,-1.6821,-1.6864,-1.6894,-1.6941,-1.6979,-1.7055,-1.7078,-1.7122,-1.7122,-1.716,-1.7128,-1.7124,-1.7121,-1.7118,-1.7122,-1.7166,-1.7167,-1.7168,-1.7169,0,-1.6668,-1.6674,-1.6714,-1.6757,-1.679,-1.6825,-1.6859,-1.688,-1.6899,-1.6931,-1.6979,-1.7009,-1.7067,-1.7113,-1.7158,-1.7179,-1.7177,-1.7178,-1.7189,-1.7186,-1.7178,-1.7182,-1.707,-1.7176,-1.7175,-1.7174,-1.7174,-1.7174,-1.6729,-1.6763,-1.6797,-1.6842,-1.6868,-1.6899,-1.6934,-1.6954,-1.6994,-1.7042,-1.7048,-1.7099,-1.7133,-1.7193,-1.7216,-1.7256,-1.7245,-1.7261,-1.7265,-1.7269,-1.7271,-1.7172,-1.7264,-1.7264,-1.7264,-1.7264,-1.7264,0,-1.6817,-1.6839,-1.6879,-1.6926,-1.696,-1.6955,-1.6991,-1.7021,-1.7065,-1.7098,-1.7135,-1.7189,-1.7234,-1.726,-1.7305,-1.7332,-1.7332,-1.7343,-1.7341,-1.7345,-1.7278,-1.7264,-1.7342,-1.7342,-1.7342,-1.7342,-1.7342,-1.7342,-1.6867,-1.6924,-1.6935,-1.7005,-1.7026,-1.7076,-1.7097,-1.7126,-1.7151,-1.7212,-1.7248,-1.7265,-1.7295,-1.7341,-1.7382,-1.7389,-1.7405,-1.7417,-1.7422,-1.7359,-1.735,-1.7343,-1.7329,-1.742,-1.742,-1.7486,-1.7487,-1.7487]},{"header":{"parameterUnit":"m.s-1","parameterCategory":1,"la1":30.2991,"la2":30.254,"lo1":-89.0895,"lo2":-89.0444,"dy":0.0017,"dx":0.0017,"nx":28,"ny":28,"refTime":"2024-08-04T09:00:00:Z","depth":0,"parameterNumber":3,"parameterNumberName":"V-component_of_WINDS"},"data":[0,0,0,0,0,0,0,0,0,0,0,0,0,0,0,0,0,0,0,0,0,0,0,0,0,0,0,0,0,0,0,0,0,0,0,0,0,0,0,0,0,0,0,0,0,0,0,0,0,0,0,0,0,0,0,0,0,0,-4.6809,-4.681,0,-4.6912,-4.6914,-4.6915,-4.687,-4.6867,-4.6865,-4.6862,-4.6962,-4.6967,-4.6972,0,0,0,0,0,0,0,0,0,0,0,0,0,-4.6567,-4.6571,-4.6809,-4.681,-4.6812,-4.6912,-4.6914,-4.6915,-4.687,-4.6867,-4.6864,-4.6861,-4.696,-4.6966,-4.6972,0,0,0,0,0,0,0,0,0,0,0,0,0,-4.6671,-4.6573,-4.6809,-4.6802,-4.6802,-4.6912,-4.6914,-4.6915,-4.6871,-4.6867,-4.6863,-4.686,-4.6958,-4.6965,-4.6973,-4.7094,0,0,-4.6996,-4.6999,0,0,0,0,0,0,0,0,-4.6665,-4.668,-4.6801,-4.6802,-4.6803,-4.6875,-4.6865,-4.6975,-4.6872,-4.6845,-4.6862,-4.6858,-4.6935,-4.6944,-4.6972,-4.7099,-4.7103,-4.6996,-4.7001,-4.7004,-4.7006,0,0,0,0,0,0,0,-4.6658,-4.6675,-4.685,-4.6803,-4.6804,-4.6791,-4.6802,-4.6885,-4.6909,-4.6847,-4.6844,-4.6857,-4.6935,-4.6965,-4.6974,-4.7104,-4.6996,-4.7003,-4.7007,-4.701,-4.7335,-4.7339,0,0,0,0,0,0,-4.6652,-4.6669,-4.6846,-4.6853,-4.6724,-4.6799,-4.681,-4.6855,-4.6909,-4.6913,-4.686,-4.6854,-4.6954,-4.6965,-4.6977,-4.7122,-4.7004,-4.7011,-4.7015,-4.7331,-4.7336,-4.734,0,0,0,0,0,0,-4.6647,-4.6668,-4.6842,-4.676,-4.6782,-4.6807,-4.6857,-4.6859,-4.6889,-4.6919,-4.6922,-4.6886,-4.6951,-4.6967,-4.7066,-4.7125,-4.7014,-4.7021,-4.7326,-4.7332,-4.7338,-4.7414,0,0,0,0,0,0,-4.664,-4.6666,-4.6714,-4.6762,-4.6786,-4.6931,-4.6861,-4.6864,-4.6903,-4.6897,-4.6944,-4.6949,-4.695,-4.7055,-4.7073,-4.7133,-4.7027,-4.732,-4.7329,-4.7336,-4.7406,-4.7422,-4.7435,0,0,0,0,0,-4.6631,-4.673,-4.6717,-4.6738,-4.6847,-4.6935,-4.6948,-4.6949,-4.6908,-4.6955,-4.6974,-4.6947,-4.7116,-4.7065,-4.7085,-4.7149,-4.7317,-4.7326,-4.7335,-4.7399,-4.7419,-4.7435,0,0,0,0,0,0,-4.6686,-4.6736,-4.6722,-4.684,-4.6884,-4.6927,-4.6987,-4.697,-4.7025,-4.7016,-4.7013,-4.7024,-4.7126,-4.7147,-4.709,-4.7268,-4.721,-4.7223,-4.7251,-4.727,-4.7284,-4.7277,-4.7033,0,0,0,0,0,-4.6712,-4.6782,-4.6821,-4.692,-4.6943,-4.6962,-4.7,-4.6997,-4.7041,-4.7059,-4.7085,-4.7128,-4.719,-4.7231,-4.729,-4.7409,-4.7418,-4.7462,-4.7477,-4.7489,-4.75,-4.7564,-4.7584,-4.7371,-4.7371,-4.7371,0,0,-4.6766,-4.6802,-4.6846,-4.6932,-4.6966,-4.7036,-4.6977,-4.7054,-4.7105,-4.707,-4.7166,-4.7186,-4.7233,-4.7342,-4.7392,-4.7363,-4.7561,-4.7501,-4.751,-4.7515,-4.7576,-4.7596,-4.7614,-4.7377,-4.7376,-4.7375,0,0,-4.69,-4.6935,-4.7022,-4.7058,-4.711,-4.7122,-4.7143,-4.7189,-4.7202,-4.7299,-4.7274,-4.7333,-4.7441,-4.7476,-4.7507,-4.7655,-4.7632,-4.7674,-4.775,-4.7812,-4.7829,-4.7844,-4.7895,-4.7914,-4.7686,-4.7686,-4.7686,0,-4.696,-4.7067,-4.7068,-4.7147,-4.7186,-4.716,-4.7246,-4.728,-4.7348,-4.7374,-4.7342,-4.7477,-4.7506,-4.7623,-4.7659,-4.7686,-4.7708,-4.7668,-4.7827,-4.7842,-4.7855,-4.7905,-4.7924,-4.7691,-4.769,-4.7689,-4.7689,0,-4.7137,-4.7211,-4.7275,-4.7344,-4.7389,-4.7472,-4.7484,-4.7529,-4.7523,-4.7537,-4.7635,-4.767,-4.7735,-4.7763,-4.7756,-4.7878,-4.7859,-4.7827,-4.7767,-4.788,-4.7927,-4.7946,-4.7697,-4.7696,-4.7694,-4.7693,0,0,-4.7308,-4.7378,-4.7401,-4.7432,-4.7489,-4.7545,-4.7625,-4.7692,-4.773,-4.7778,-4.7845,-4.7937,-4.7908,-4.7943,-4.794,-4.7995,-4.8109,-4.7955,-4.7956,-4.7982,-4.8245,-4.8268,-4.829,-4.8094,-4.8097,-4.81,-4.8241,0,-4.7446,-4.759,-4.7594,-4.7724,-4.7792,-4.7769,-4.7838,-4.7879,-4.7895,-4.7953,-4.7969,-4.8034,-4.7991,-4.8012,-4.8065,-4.8084,-4.8161,-4.8074,-4.8154,-4.8157,-4.8143,-4.8315,-4.834,-4.8471,-4.8259,-4.8262,-4.8264,0,-4.7626,-4.7682,-4.7821,-4.7867,-4.7896,-4.7959,-4.802,-4.8077,-4.8122,-4.8129,-4.817,-4.8159,-4.8238,-4.8177,-4.8287,-4.8227,-4.826,-4.8274,-4.8279,-4.8286,-4.8217,-4.8326,-4.8513,-4.8532,-4.8293,-4.829,-4.8288,0,-4.7736,-4.7846,-4.7943,-4.797,-4.8028,-4.8072,-4.8098,-4.814,-4.8179,-4.8232,-4.8257,-4.8318,-4.8351,-4.8397,-4.8401,-4.8356,-4.8511,-4.845,-4.8518,-4.8518,-4.8551,-4.8548,-4.8745,-4.8573,-4.8573,-4.8572,-4.8572,0,-4.7889,-4.7974,-4.7993,-4.8053,-4.8147,-4.815,-4.8243,-4.8264,-4.8302,-4.8364,-4.8346,-4.8404,-4.8407,-4.8465,-4.8469,-4.8558,-4.8573,-4.858,-4.858,-4.8582,-4.8581,-4.8602,-4.8593,-4.8578,-4.8576,-4.8575,-4.8575,0,-4.8028,-4.8044,-4.8148,-4.8195,-4.8208,-4.8276,-4.8314,-4.837,-4.8384,-4.8462,-4.8481,-4.8502,-4.857,-4.858,-4.8659,-4.8661,-4.8769,-4.8759,-4.8754,-4.8752,-4.8819,-4.8813,-4.9036,-4.9065,-4.8875,-4.8877,-4.8878,0,-4.8124,-4.819,-4.8244,-4.8285,-4.8314,-4.838,-4.8421,-4.8426,-4.8469,-4.8526,-4.8575,-4.8642,-4.8696,-4.8805,-4.8826,-4.8886,-4.8878,-4.8952,-4.8886,-4.8886,-4.8878,-4.8874,-4.888,-4.8964,-4.8966,-4.8968,-4.8969,0,-4.8293,-4.8299,-4.836,-4.8424,-4.8475,-4.8525,-4.8572,-4.8606,-4.8616,-4.8665,-4.8736,-4.8778,-4.886,-4.8926,-4.8986,-4.9009,-4.8991,-4.899,-4.9009,-4.9011,-4.9005,-4.9008,-4.8788,-4.8985,-4.8983,-4.8982,-4.8981,-4.898,-4.8413,-4.8471,-4.8518,-4.8587,-4.8623,-4.8668,-4.8723,-4.8745,-4.8805,-4.8874,-4.8872,-4.895,-4.8992,-4.9071,-4.9099,-4.9158,-4.9134,-4.9161,-4.9167,-4.9174,-4.9181,-4.8996,-4.9169,-4.9168,-4.9168,-4.9168,-4.9167,0,-4.8581,-4.8611,-4.8674,-4.8742,-4.8796,-4.8777,-4.8828,-4.8873,-4.8943,-4.8985,-4.9039,-4.912,-4.9184,-4.9211,-4.9273,-4.9316,-4.9309,-4.9332,-4.9328,-4.9334,-4.9199,-4.9177,-4.9336,-4.9336,-4.9336,-4.9336,-4.9336,-4.9336,-4.8675,-4.8771,-4.8781,-4.8894,-4.8923,-4.9001,-4.9032,-4.9072,-4.9106,-4.9199,-4.9253,-4.9271,-4.9306,-4.9371,-4.9429,-4.9435,-4.9458,-4.9485,-4.9487,-4.936,-4.9343,-4.9327,-4.9306,-4.949,-4.949,-4.9616,-4.9618,-4.9618]}]]